Regional Weather Roundup
Issued by NWS

Home | Current Version | Previous Version | Text Only | Print | Product List | Glossary On
Versions: 1 2 3 4 5 6 7 8 9 10 11 12 13 14 15 16 17 18 19 20 21 22 23 24 25 26 27
000
ASPQ40 PGUM 220112
RWRPQ
WEATHER ROUNDUP FOR THE MARIANAS AND MICRONESIA
NATIONAL WEATHER SERVICE TIYAN GU
1100 AM CHST SUN JAN 22 2017

GUZ001>004-220200-
MARIANA ISLANDS-

CITY           SKY/WX    TMP DP  RH WIND       PRES   REMARKS
GUAM AIRPORT   CLOUDY    84  75  74 NE20G25   30.01F HX  92
ANDERSEN AFB   PTSUNNY   81  73  78 NE21G29   30.03F
ROTA AIRPORT   PTSUNNY   81  73  78 NE18G25   30.03F
TINIAN AP      MOSUNNY   84  73  70 NE23      30.02F HX  91
SAIPAN AP      MOSUNNY   82  72  69 NE20G25   30.03F

$$

PMZ161-220200-
REPUBLIC OF PALAU-

CITY           SKY/WX    TMP DP  RH WIND       PRES   REMARKS
KOROR AP       CLOUDY    81  77  89 NE10G22   29.93F
KOROR WSO      CLOUDY    84  79  84 E7        29.94F HX  96

$$

PMZ171>174-220200-
FEDERATED STATES OF MICRONESIA-

CITY           SKY/WX    TMP DP  RH WIND       PRES   REMARKS
YAP AIRPORT    PTSUNNY   84  79  84 NE10      29.93F HX  96
CHUUK AP       CLOUDY    86  79  79 NE10      29.86F HX  99
POHNPEI AP     NOT AVBL
POHNPEI WSO    CLOUDY    84  77  79 NE5       29.89F HX  94
KOSRAE AP      NOT AVBL

$$

PMZ181-220200-
REPUBLIC OF THE MARSHALL ISLANDS-

CITY           SKY/WX    TMP DP  RH WIND       PRES   REMARKS
KWAJALEIN AP   SUNNY     86  75  70 NE17      29.87S HX  95
MAJURO AP      NOT AVBL
MAJURO WSO     CLOUDY    86  77  74 NE12      29.82F HX  97

$$





USA.gov is the U.S. government's official web portal to all federal, state and local government web resources and services.